Date,TemperatureHighF,TemperatureAvgF,TemperatureLowF,DewpointHighF,DewpointAvgF,DewpointLowF,HumidityHigh,HumidityAvg,HumidityLow,PressureMaxIn,PressureMinIn,WindSpeedMaxMPH,WindSpeedAvgMPH,GustSpeedMaxMPH,PrecipitationSumIn
2013-1-1,53,44,37,46,38,32,92,80,62,30.12,30.03,0,0,0,0.06
2013-1-2,55,52,47,48,45,42,86,77,72,30.22,30.00,0,0,0,0.05
2013-1-3,59,53,44,44,42,39,85,66,49,30.45,30.22,0,0,0,0.00
2013-1-4,56,49,39,45,41,37,90,74,64,30.41,30.26,0,0,0,0.00
2013-1-5,50,48,43,44,42,38,82,80,77,30.26,30.13,0,0,0,0.00
2013-1-6,54,48,44,47,43,40,92,84,70,30.17,30.04,0,0,0,0.00
2013-1-7,56,49,42,46,42,38,91,79,62,30.17,30.04,0,0,0,0.00
2013-1-8,49,46,43,44,42,39,89,87,82,30.19,30.16,0,0,0,0.00
2013-1-9,54,48,43,44,42,40,88,79,61,30.16,30.09,0,0,0,0.00
2013-1-10,50,48,46,47,45,42,93,89,75,29.93,29.77,0,0,0,0.39
2013-1-11,52,46,40,50,43,39,95,90,75,29.79,29.62,0,0,0,0.02
2013-1-12,54,44,37,47,40,34,93,84,75,29.97,29.79,0,0,0,0.00
2013-1-13,53,48,43,50,46,40,94,91,86,29.95,29.68,0,0,0,0.39
2013-1-14,55,51,46,49,45,38,94,81,67,29.84,29.65,0,0,0,0.02
2013-1-15,54,46,41,42,39,37,92,79,54,29.85,29.50,0,0,0,0.14
2013-1-16,44,41,36,42,38,34,94,92,84,29.50,29.36,0,0,0,1.20
2013-1-17,45,40,35,42,36,32,91,87,80,29.39,29.22,0,0,0,0.04
2013-1-18,46,41,36,36,32,29,92,73,56,29.57,29.29,0,0,0,0.01
2013-1-19,52,40,34,50,36,29,92,85,74,29.59,29.45,0,0,18,0.09
2013-1-20,57,55,51,55,52,48,94,92,88,29.45,29.37,0,0,0,0.21
2013-1-21,53,49,44,49,44,38,94,85,57,29.47,29.32,0,0,0,0.25
2013-1-22,54,47,41,44,38,33,92,74,47,29.73,29.46,0,0,0,0.00
2013-1-23,47,44,40,45,41,37,93,89,79,29.73,29.51,0,0,0,0.39
2013-1-24,52,45,41,43,40,34,93,81,64,29.48,29.33,0,0,0,0.08
2013-1-25,52,44,39,37,34,30,82,68,54,29.59,29.37,0,0,0,0.00
2013-1-26,49,42,37,31,28,26,69,59,44,29.81,29.58,0,0,0,0.00
2013-1-27,50,34,34,36,12,-100,83,58,55,29.93,29.81,0,-136,0,0.00
2013-1-28,46,43,38,44,39,-100,92,87,77,29.96,29.75,0,-9,0,0.50
2013-1-29,54,46,39,43,39,34,87,78,62,30.18,30.00,0,0,0,0.00
2013-1-30,57,46,40,47,41,36,92,83,64,30.17,30.10,0,0,0,0.00
2013-1-31,62,54,46,52,48,43,93,80,63,30.14,30.09,0,0,0,0.00
2013-2-1,60,54,45,52,49,42,91,84,72,30.00,29.67,0,0,0,0.00
2013-2-2,60,53,50,52,48,37,92,83,59,29.67,29.18,0,0,0,0.03
2013-2-3,54,44,42,41,26,-100,90,60,40,29.90,29.25,0,0,0,0.11
2013-2-4,53,44,36,36,30,18,78,57,28,30.09,29.98,0,0,0,0.00
2013-2-5,53,46,40,47,40,33,92,80,70,30.06,29.72,0,0,0,0.00
2013-2-6,56,48,40,47,40,31,94,77,43,29.72,29.44,0,0,0,0.06
2013-2-7,46,41,39,43,38,29,93,89,68,29.43,29.39,3,0,3,0.61
2013-2-10,46,37,31,24,20,12,69,52,25,29.89,29.81,0,0,0,0.00
2013-2-11,52,44,37,46,36,21,93,75,48,29.89,29.45,0,0,0,0.69
2013-2-12,54,46,41,44,41,37,94,82,64,29.63,29.47,0,0,0,0.00
2013-2-13,52,45,39,36,33,31,80,63,46,29.75,29.61,0,0,0,0.00
2013-2-14,54,44,38,39,33,30,78,66,47,29.93,29.75,0,0,0,0.00
2013-2-15,52,42,34,39,34,31,87,74,52,29.94,29.88,0,0,0,0.00
2013-2-16,55,48,40,41,36,31,81,63,47,30.00,29.95,0,0,0,0.00
2013-2-17,55,43,36,41,36,31,85,74,57,30.00,29.91,0,0,0,0.00
2013-2-18,51,43,37,41,36,33,85,76,59,29.93,29.88,0,0,0,0.03
2013-2-19,52,42,34,36,31,28,81,66,39,29.95,29.87,0,0,0,0.00
2013-2-20,54,47,40,38,36,31,82,65,53,29.93,29.84,0,0,0,0.00
2013-2-21,55,46,37,43,37,32,87,72,52,29.85,29.60,0,0,0,0.05
2013-2-22,55,49,43,49,45,41,94,86,70,29.60,29.36,0,0,0,0.01
2013-2-23,54,47,40,52,43,37,94,88,73,29.54,29.31,0,0,0,0.43
2013-2-24,48,44,37,40,34,31,86,71,52,29.86,29.54,0,0,0,0.08
2013-2-25,46,41,37,40,36,33,93,84,73,29.98,29.86,0,0,0,0.24
2013-2-26,54,44,38,40,36,34,87,74,56,30.07,29.97,0,0,0,0.00
2013-2-27,56,45,36,39,34,31,86,67,40,30.15,30.06,0,0,0,0.00
2013-2-28,46,41,37,35,33,32,82,73,65,30.17,30.14,0,0,0,0.00
2013-3-2,58,51,46,34,32,30,57,48,40,29.93,29.82,0,0,0,0.00
2013-3-9,58,57,56,55,55,54,94,93,90,29.71,29.68,0,0,0,0.01
2013-3-10,53,52,51,51,49,48,94,92,90,29.53,29.50,0,0,0,0.76
2013-3-11,62,54,49,53,50,47,95,86,65,29.54,29.48,0,0,0,0.09
2013-3-13,46,44,44,43,42,41,92,91,90,29.24,29.21,0,0,0,0.24
2013-3-14,46,44,42,42,36,32,92,76,62,29.23,29.18,0,0,0,0.00
2013-3-15,53,45,40,33,28,23,69,52,36,29.81,29.22,0,0,0,0.00
2013-3-16,53,43,35,34,27,18,71,54,27,30.06,29.81,0,0,0,0.00
2013-3-17,53,47,39,45,37,31,87,69,55,30.05,29.71,0,0,0,0.05
2013-3-18,56,53,48,54,49,45,93,88,80,29.71,29.43,0,0,0,0.29
2013-3-23,63,61,58,50,48,47,70,63,57,29.86,29.78,0,0,0,0.00
2013-3-24,60,60,60,47,47,47,62,62,62,29.42,29.42,0,0,0,0.00
2013-3-25,60,53,46,52,46,38,93,77,67,29.47,29.26,0,0,0,0.85
2013-3-26,57,50,45,53,45,38,93,84,70,29.51,29.45,0,0,0,0.16
2013-3-27,62,53,44,49,46,42,93,80,52,29.75,29.51,0,0,0,0.00
2013-3-28,59,54,50,54,50,47,92,88,84,29.82,29.73,0,0,0,0.06
2013-3-29,65,59,55,55,53,52,91,82,64,29.81,29.70,0,0,0,0.00
2013-3-30,63,57,54,55,52,50,93,84,69,29.70,29.41,0,0,0,0.07
2013-3-31,61,56,50,52,49,44,93,78,63,29.60,29.40,0,0,0,0.13
2013-4-1,64,54,46,50,46,41,93,74,52,29.66,29.44,0,0,0,0.30
2013-4-2,58,54,51,56,51,47,95,91,77,29.50,29.34,0,0,0,0.46
2013-4-3,63,54,48,49,47,43,93,79,56,29.71,29.50,0,0,0,0.02
2013-4-4,64,55,45,50,45,38,91,72,41,29.72,29.44,0,0,0,0.00
2013-4-5,63,56,50,53,49,43,92,79,55,29.72,29.36,0,0,0,0.06
2013-4-6,66,55,48,56,49,45,92,81,55,29.73,29.67,0,0,0,0.03
2013-4-7,67,58,52,50,44,34,87,60,40,29.71,29.58,0,0,0,0.00
2013-4-8,62,54,45,48,40,34,80,60,41,29.80,29.71,0,0,0,0.00
2013-4-9,64,57,52,52,49,46,90,76,53,29.85,29.75,0,0,0,0.02
2013-4-10,67,58,52,54,51,48,88,76,58,29.95,29.81,0,0,0,0.00
2013-4-11,52,52,52,48,48,47,86,86,85,29.95,29.94,0,0,0,0.00
2013-4-13,73,64,54,56,53,50,90,69,45,30.20,30.10,0,0,0,0.00
2013-4-14,75,61,50,52,49,44,92,68,39,30.26,30.20,0,0,0,0.00
2013-4-15,75,62,53,56,51,46,90,69,42,30.20,30.07,0,0,0,0.00
2013-4-16,74,61,51,57,53,49,95,76,50,30.11,30.05,0,0,0,0.00
2013-4-17,57,56,56,53,53,52,89,87,85,30.11,30.10,0,0,0,0.00
2013-4-20,58,54,51,46,45,45,79,73,63,29.97,29.95,0,0,0,0.01
2013-4-21,66,57,49,50,45,41,88,68,41,29.97,29.89,0,0,0,0.09
2013-4-22,58,52,48,54,48,44,91,87,78,29.91,29.82,0,0,0,0.32
2013-5-1,73,68,63,58,54,46,85,64,38,30.00,29.92,0,0,0,0.04
2013-5-2,76,66,62,62,59,55,92,77,55,29.97,29.85,0,0,0,0.09
2013-5-3,80,68,56,60,55,52,89,67,42,29.91,29.83,0,0,0,0.00
2013-5-4,81,70,60,62,56,49,84,62,42,29.93,29.84,0,0,0,0.00
2013-5-5,71,64,60,61,56,50,89,76,55,29.97,29.89,0,0,0,0.09
2013-5-6,65,61,58,62,58,54,94,91,82,29.92,29.82,0,0,0,0.36
2013-5-7,60,59,58,58,57,57,95,94,94,29.93,29.90,0,0,0,0.00
2013-5-13,74,64,55,54,48,36,87,59,27,29.92,29.83,0,0,0,0.00
2013-5-14,76,66,52,57,49,42,87,58,32,29.94,29.83,0,0,0,0.00
2013-5-15,72,63,55,58,55,50,91,76,54,29.83,29.63,0,0,0,0.02
2013-5-16,74,64,59,63,57,50,93,78,57,29.63,29.46,0,0,0,0.20
2013-5-17,70,64,58,61,55,48,90,74,51,29.85,29.49,0,0,0,0.02
2013-5-18,78,67,55,58,54,48,87,65,34,29.92,29.78,0,0,0,0.02
2013-5-20,59,59,59,50,50,50,72,72,71,30.03,30.03,0,0,0,0.00
2013-5-21,69,62,56,57,51,46,89,69,46,30.03,29.77,0,0,0,0.06
2013-5-22,58,58,57,55,54,54,90,89,87,29.77,29.66,0,0,0,0.02
2013-5-23,57,57,57,53,53,53,88,88,87,29.61,29.61,0,0,0,0.21
2013-5-24,66,60,55,54,49,40,91,68,41,29.82,29.58,0,0,0,0.00
2013-5-25,66,58,53,50,45,41,76,63,44,29.82,29.75,0,0,0,0.00
2013-5-28,75,64,56,54,50,40,84,62,31,29.87,29.61,0,0,0,0.00
2013-5-29,69,62,56,58,52,47,89,72,51,29.69,29.63,0,0,0,0.02
2013-5-30,65,59,52,55,49,46,91,72,58,29.69,29.65,0,0,0,0.19
2013-5-31,67,59,51,55,50,47,91,73,54,29.69,29.64,0,0,0,0.00
2013-6-1,64,59,58,55,52,50,86,76,72,29.68,29.63,0,0,0,0.14
2013-6-5,75,68,59,61,58,53,89,73,51,29.99,29.91,0,0,0,0.00
2013-6-6,78,68,58,61,56,52,88,67,46,30.01,29.94,0,0,0,0.00
2013-6-7,81,70,60,61,57,52,84,64,41,29.97,29.91,0,0,0,0.00
2013-6-8,82,71,61,63,58,54,85,67,42,29.94,29.87,0,0,0,0.00
2013-6-9,77,69,62,64,59,50,91,72,43,29.91,29.80,0,0,0,0.00
2013-6-10,74,68,62,61,59,53,91,73,51,29.84,29.79,0,0,0,0.00
2013-11-14,59,58,57,55,54,53,89,88,84,29.82,29.79,0,0,0,0.00
2013-11-15,58,55,53,55,53,51,94,92,89,29.82,29.78,0,0,0,0.35
2013-11-18,62,57,53,51,49,48,84,75,64,29.92,29.64,0,0,0,0.00
2013-11-20,48,47,47,46,46,46,95,95,95,29.57,29.53,0,0,0,1.24
2013-11-22,48,48,48,46,46,46,93,93,92,29.39,29.37,0,0,0,0.43
2013-11-23,47,46,46,45,45,44,94,94,94,29.43,29.41,0,0,0,0.43
2013-11-25,42,40,39,39,30,26,87,66,58,29.84,29.65,0,0,0,0.00
2013-11-26,42,39,37,28,27,24,68,62,51,29.95,29.84,0,0,0,0.00
2013-11-27,38,38,37,28,28,27,69,68,66,30.01,29.95,0,0,0,0.00
2013-12-1,54,54,54,40,38,37,59,55,53,29.67,29.63,0,0,0,0.00
2013-12-2,62,57,53,43,42,40,62,56,50,30.07,29.73,0,0,0,0.01
2013-12-3,60,53,46,40,35,31,63,50,37,30.17,30.07,0,0,0,0.00
2013-12-4,58,47,40,47,37,30,88,69,54,30.21,30.13,0,0,0,0.00
2013-12-5,54,44,36,44,37,32,90,79,58,30.15,30.07,0,0,0,0.00
2013-12-6,51,50,49,43,42,42,77,74,72,29.96,29.92,0,0,0,0.00
2013-12-7,55,48,40,43,41,37,89,76,58,30.26,29.95,0,0,0,0.00
2013-12-8,56,46,44,44,39,38,80,77,65,30.27,30.25,0,0,0,0.00
2013-12-9,60,52,45,48,44,40,85,75,62,30.37,30.32,0,0,0,0.00
2013-12-10,57,47,41,44,41,38,89,79,60,30.45,30.35,0,0,0,0.01
2013-12-11,59,47,40,50,42,36,92,82,66,30.49,30.43,0,0,0,0.00
2013-12-13,52,45,40,43,40,36,90,83,71,30.31,30.21,0,0,0,0.00
2013-12-14,43,40,39,41,38,36,95,93,90,30.34,30.26,0,0,0,0.00
2013-12-16,50,44,40,37,36,34,82,74,59,30.48,30.45,0,0,0,0.00
2013-12-17,55,47,37,41,35,30,78,63,49,30.44,30.35,0,0,0,0.00
2013-12-19,56,49,38,44,40,32,78,71,61,30.21,30.11,0,0,0,0.00
2013-12-20,55,52,48,52,48,42,93,86,69,30.42,30.09,0,0,0,0.26
2013-12-21,56,50,45,49,47,44,93,88,74,30.52,30.42,0,0,0,0.00
2013-12-22,56,49,44,47,44,41,91,85,69,30.49,30.35,0,0,0,0.00
2013-12-23,46,42,39,44,40,37,93,92,90,30.35,30.29,0,0,0,0.00
2013-12-24,52,48,43,46,43,41,94,84,75,30.17,30.05,0,0,0,0.01
2013-12-25,58,52,44,52,47,41,91,83,74,30.05,29.56,0,0,0,0.01
2013-12-26,56,55,54,54,52,51,93,90,85,29.56,29.36,0,0,0,0.19
2013-12-31,57,51,46,45,42,40,83,72,55,30.07,30.00,0,0,0,0.01
2014-1-1,54,46,40,44,40,38,90,80,68,30.08,30.01,0,0,0,0.00
2014-1-2,53,43,39,46,40,37,92,88,76,30.07,30.01,0,0,0,0.00